Home   Weather   Molde   Past weeks

Flag for Norway Past Weather in Molde, Norway — Yesterday and Last 2 Weeks

Now
48 °F

Light rain. Partly cloudy.


Feels Like: 40 °F
Forecast: 38 / 44 °F
Wind: 24 mph from West

Location: Aro

Current Time: Jan 20, 2017 at 7:11:53 am

Latest Report: Jan 20, 2017 at 6:20 am


Visibility: N/A

Pressure: 30.07 "Hg

Humidity: 87%

Dew Point: 45 °F

Location of MoldeLocation

Past Weather in Molde — Graph

°F

Molde Temperature Yesterday

Maximum temperature yesterday: 46 °F (at 3:50 am)
Minimum temperature yesterday: 37 °F (at 5:20 pm)
Average temperature yesterday: 42 °F

High & Low Weather Summary for the Past Weeks

 TemperatureHumidityPressure
High48 °F (Jan 20, 6:20 am)100% (Jan 9, 11:50 am)30.48 "Hg (Jan 9, 11:50 am)
Low19 °F (Jan 5, 7:20 am)57% (Jan 6, 1:50 pm)28.56 "Hg (Jan 12, 7:20 am)
Average35 °F86%29.76 "Hg
* Reported Jan 5 6:20 am — Jan 20 6:20 am, Molde, Weather by CustomWeather, © 2017

Note: Actual official high and low records may vary slightly from our data, if they occured in-between our weather recording intervals... More about our weather records

Advertising

Molde Weather History for the Previous 24 Hours

Scroll right to see more
 ConditionsComfort  
Time TempWeatherWind HumidityBarometerVisibility
6:20 am
Fri, Jan 20
48 °FLight rain. Partly cloudy.24 mph87%30.07 "HgN/A
5:50 am46 °FLight rain. Mostly cloudy.26 mph93%30.07 "HgN/A
5:20 am46 °FLight rain. Overcast.30 mph93%30.07 "Hg2 mi
4:50 am46 °FLight rain. Fog.26 mph93%30.07 "Hg2 mi
4:20 am46 °FRain. Fog.29 mph93%30.07 "Hg2 mi
3:50 am46 °FLight rain. Mostly cloudy.30 mph93%30.07 "Hg5 mi
3:20 am46 °FRain. Mostly cloudy.28 mph93%30.07 "Hg4 mi
2:50 am46 °FRain. Partly cloudy.31 mph93%30.07 "Hg4 mi
2:20 am45 °FRain. Mostly cloudy.13 mph100%30.07 "Hg5 mi
1:50 am39 °FRain. Mostly cloudy.2 mph93%30.09 "Hg2 mi
1:20 am37 °FRain. Dense fog.3 mph100%30.09 "Hg1 mi
12:50 am37 °FRain. Light fog.6 mph100%30.09 "Hg4 mi
12:20 am37 °FRain. Light fog.3 mph93%30.12 "Hg5 mi
11:50 pm
Thu, Jan 19
37 °FRain. Light fog.5 mph93%30.12 "Hg6 mi
11:20 pm37 °FRain. Light fog.5 mph93%30.12 "Hg4 mi
10:50 pm37 °FRain. Partly cloudy.5 mph93%30.15 "HgN/A
9:50 pm37 °FRain. Partly cloudy.6 mph93%30.15 "HgN/A
9:20 pm37 °FRain. Partly cloudy.5 mph93%30.18 "HgN/A
8:50 pm37 °FLight rain. Passing clouds.6 mph93%30.18 "HgN/A
8:20 pm37 °FRain. Passing clouds.5 mph93%30.21 "HgN/A
7:50 pm37 °FLight rain. Partly cloudy.3 mph93%30.21 "HgN/A
7:20 pm37 °FLight rain. Partly cloudy.1 mph93%30.21 "HgN/A
6:50 pm37 °FLight rain. Partly cloudy.1 mph93%30.21 "HgN/A
6:20 pm39 °FRain. Partly cloudy.2 mph93%30.21 "HgN/A
5:50 pm39 °FRain. Partly cloudy.2 mph93%30.21 "HgN/A
5:20 pm37 °FRain. Partly cloudy.2 mph100%30.21 "Hg5 mi
4:50 pm39 °FPartly cloudy.1 mph93%30.21 "Hg4 mi
4:20 pm39 °FPartly cloudy.3 mph93%30.24 "HgN/A
3:50 pm39 °FPartly cloudy.7 mph93%30.24 "Hg6 mi
3:20 pm39 °FDrizzle. Broken clouds.8 mph93%30.21 "Hg5 mi
2:50 pm41 °FLight rain. Broken clouds.9 mph87%30.21 "HgN/A
2:20 pm41 °FDrizzle. Broken clouds.10 mph87%30.21 "HgN/A
1:50 pm41 °FDrizzle. Broken clouds.16 mph87%30.18 "HgN/A
1:20 pm41 °FDrizzle. Broken clouds.15 mph87%30.18 "Hg4 mi
12:50 pm41 °FDrizzle. Broken clouds.14 mph87%30.18 "Hg4 mi
12:20 pm43 °FDrizzle. Broken clouds.16 mph87%30.18 "Hg5 mi
11:50 am43 °FDrizzle. Partly sunny.23 mph87%30.15 "Hg5 mi
11:20 am43 °FDrizzle. Broken clouds.23 mph87%30.15 "Hg4 mi
10:50 am43 °FDrizzle. Broken clouds.21 mph87%30.12 "HgN/A
10:20 am43 °FLight rain. Broken clouds.18 mph87%30.12 "HgN/A
9:50 am43 °FDrizzle. Broken clouds.22 mph87%30.09 "Hg3 mi
9:20 am43 °FRain. Partly cloudy.23 mph87%30.09 "Hg6 mi
8:50 am45 °FRain. Partly cloudy.31 mph87%30.04 "HgN/A
8:20 am45 °FPartly cloudy.20 mph93%30.04 "Hg5 mi
7:50 am43 °FLight rain. Partly cloudy.18 mph100%30.04 "HgN/A
7:20 am43 °FRain. Partly cloudy.21 mph93%30.04 "HgN/A
Weather by CustomWeather, © 2017

See weather overviewHow to use our weather pages